Location: Unspecified
(47.7670°N, 8.8522°E)
Time: 14:16:48
(UTC+01:00)

Tiangong - Pass Details

Date: 07 December 2022
Orbit: 383 x 386 km, 41.5° (Epoch: 05 February)

Event Time Altitude Azimuth Distance (km) Brightness Sun altitude
Rises 19:21:28 0° 261° (W) 2,251 3.0 -27.4°
Reaches altitude 10° 19:24:10 10° 236° (WSW) 1,397 1.4 -27.8°
Enters shadow 19:24:40 12° 228° (SW) 1,290 1.1 -27.9°
